Hourly Weather Roundup
Issued by NWS Central Illinois

Home | Current Version | Previous Version | Text Only | Print | Product List | Glossary On
Versions: 1 2 3 4 5 6 7 8 9 10 11 12 13 14 15 16 17 18 19 20 21 22 23 24 25 26 27 28 29 30 31 32 33 34 35 36 37 38 39 40 41 42 43 44 45 46 47 48 49 50
000
NZUS43 KILX 280010
HWRILX

AREA WEATHER ROUNDUP
NATIONAL WEATHER SERVICE, LINCOLN IL
600 PM CST FRI FEB 27 2015


CITY           SKY/WX    TMP DP  RH WIND       PRES   REMARKS
BLOOMINGTON    CLEAR      9   0  67 CALM      30.63R
6HR MIN TEMP:   9; 6HR MAX TEMP:  18;

CHAMPAIGN      CLEAR      5  -2  72 S6        30.64R WCI  -6
6HR MIN TEMP:   4; 6HR MAX TEMP:  13;

DECATUR        PTCLDY    10  -2  58 S5        30.64S WCI   2
6HR MIN TEMP:  10; 6HR MAX TEMP:  15; 6HR PCP:  0.01;

FLORA          CLEAR     15   3  58 N3        30.66R
6HR MIN TEMP:  12; 6HR MAX TEMP:  17;

GALESBURG      CLEAR      6  -4  64 CALM      30.62S
JACKSONVILLE   CLEAR     10  -1  58 E3        30.63F
6HR MIN TEMP:   8; 6HR MAX TEMP:  15;

LACON          CLEAR      4  -7  59 CALM      30.64F
6HR MIN TEMP:   4; 6HR MAX TEMP:  12;

LAWRENCEVILLE  CLEAR     16   4  59 N5        30.65S WCI   9
6HR MIN TEMP:  16; 6HR MAX TEMP:  21; 6HR PCP: TRACE;

LITCHFIELD     MOCLDY    10  -2  58 NE6       30.63R WCI   1
$$


CITY           SKY/WX    TMP DP  RH WIND       PRES   REMARKS
LINCOLN        CLEAR     13   3  65 S5        30.68R WCI   5
6HR MIN TEMP:  13; 6HR MAX TEMP:  17; 6HR PCP:  0.01;

MACOMB         CLEAR      4  -4  70 CALM      30.66R
MATTOON        CLEAR     10  -1  61 NE6       30.63S WCI   0
6HR MIN TEMP:  10; 6HR MAX TEMP:  15; 6HR PCP: TRACE;

MT CARMEL AP   PTCLDY    21   3  45 NW7       30.64F WCI  13
OLNEY-NOBLE AP CLEAR     16   3  57 CALM      30.65F
PARIS          CLEAR      8   1  73 CALM      30.65S
6HR MIN TEMP:   7; 6HR MAX TEMP:  15;

PEORIA         CLEAR     12  -4  48 NW3       30.64S
6HR MIN TEMP:  12; 6HR MAX TEMP:  16;

PONTIAC        CLEAR      5  -3  68 CALM      30.65S
RANTOUL        CLEAR     11   1  65 N5        30.63S WCI   3
6HR MIN TEMP:  11; 6HR MAX TEMP:  17;

ROBINSON       CLEAR     14   1  56 N6        30.67S WCI   5
6HR MIN TEMP:  14; 6HR MAX TEMP:  19;

SPRINGFIELD    PTCLDY     8  -2  63 W3        30.65S
6HR MIN TEMP:   7; 6HR MAX TEMP:  13;

TAYLORVILLE    PTCLDY    10   3  72 E5        30.64S WCI   2
$$

...REGIONAL REPORTS...


CITY           SKY/WX    TMP DP  RH WIND       PRES   REMARKS
CHICAGO O`HARE PTCLDY    11  -5  48 SW8       30.60R WCI  -1
KANKAKEE       CLEAR      5  -2  72 W6        30.65S WCI  -6
MOLINE         CLEAR      7  -7  52 SW5       30.63S WCI  -2
MOUNT VERNON   CLOUDY    18   1  49 NE8       30.64R WCI   7
PITTSFIELD     PTCLDY    14  -2  50 NE3       30.62S
QUINCY         CLEAR     10  -4  53 CALM      30.61S
ROCKFORD       CLEAR      9  -6  50 SW6       30.61R WCI  -1
$$


CITY           SKY/WX    TMP DP  RH WIND       PRES   REMARKS
BURLINGTON     CLEAR      8  -2  63 E6        30.62R WCI  -2
CEDAR RAPIDS   CLEAR      4  -6  63 CALM      30.59S
DES MOINES     PTCLDY    13  -3  49 S5        30.56S WCI   5
KIRKSVILLE     CLEAR     14   1  56 E7        30.57S WCI   4
OTTUMWA        CLEAR      9  -1  64 E6        30.58S WCI  -1
ST LOUIS       MOCLDY    17  -3  41 NE6       30.63R WCI   9
$$


CITY           SKY/WX    TMP DP  RH WIND       PRES   REMARKS
TERRE HAUTE    CLEAR     13  -2  51 NW6       30.65R WCI   4
EVANSVILLE     CLOUDY    21   6  52 N8        30.64S WCI  11
INDIANAPOLIS   PTCLDY    12  -3  51 NW5       30.61R WCI   4
LAFAYETTE      CLEAR     11  -2  56 N5        30.64R WCI   3
MADISON        CLEAR     11  -4  51 SW5       30.54R WCI   3
MILWAUKEE      CLEAR     13  -5  44 SW9       30.56R WCI   1
$$




USA.gov is the U.S. government's official web portal to all federal, state and local government web resources and services.